FW6654 Weather Reports


time (UTC)temp
C
wind
direction
speed
KPH
gust
KPH
rain 1hr
cm
rain 24hr
cm
rain mn
cm
humidity
%
barometer
mb
20260507124511 10 278 3.2 4.8 0.00 0.36 0.36 80 1005.3
20260507124315 13 33 3.2 6.4 0.00 1.60 0.38 85 1007.5
20260507124216 13 316 0.0 3.2 0.00 1.60 0.38 86 1007.5
20260507124009 10 32 0.0 3.2 0.00 0.36 0.36 81 1005.6
20260507123507 10 228 0.0 3.2 0.00 0.36 0.36 83 1005.5
20260507123216 12 295 1.6 12.9 0.00 1.60 0.38 87 1007.3
20260507123003 10 337 1.6 3.2 0.00 0.36 0.36 83 1005.3
20260507122458 10 291 1.6 4.8 0.00 0.36 0.36 83 1005.5
20260507122216 12 292 0.0 3.2 0.00 1.60 0.38 89 1007.5
20260507121955 10 54 3.2 8.0 0.00 0.36 0.36 84 1005.6
20260507121450 9 52 3.2 6.4 0.00 0.36 0.36 88 1005.7
20260507121315 12 348 0.0 6.4 0.00 1.60 0.38 90 1007.9
20260507120947 8 71 3.2 3.2 0.00 0.36 0.36 90 1005.7
20260507120443 8 44 0.0 3.2 0.00 0.36 0.36 89 1005.6
20260507120415 12 337 0.0 1.6 0.00 1.60 0.38 92 1007.6
20260507115940 8 23 3.2 4.8 0.00 0.36 0.36 90 1005.7
20260507115436 8 66 0.0 4.8 0.00 0.36 0.36 92 1005.8
20260507115415 12 184 3.2 4.8 0.00 1.60 0.38 92 1007.7
20260507114932 8 175 0.0 3.2 0.00 0.36 0.36 93 1005.6
20260507114514 11 223 1.6 4.8 0.00 1.60 0.38 92 1007.5
20260507114428 8 354 1.6 3.2 0.00 0.36 0.36 93 1005.5
20260507113926 8 74 1.6 3.2 0.00 0.36 0.36 92 1005.6
20260507113518 11 314 0.0 3.2 0.00 1.60 0.38 92 1007.9
20260507113423 8 150 0.0 1.6 0.00 0.36 0.36 91 1005.8
20260507112920 8 304 3.2 3.2 0.00 0.36 0.36 92 1005.9
20260507112614 10 157 0.0 3.2 0.00 1.60 0.38 92 1007.7
20260507112417 7 236 1.6 3.2 0.00 0.36 0.36 94 1005.9
20260507111915 7 116 1.6 3.2 0.00 0.36 0.36 93 1005.6
20260507111615 10 292 0.0 0.0 0.00 1.60 0.38 92 1007.5
20260507111412 7 70 1.6 8.0 0.00 0.36 0.36 93 1005.7
20260507110908 7 284 0.0 1.6 0.00 0.36 0.36 94 1005.7
20260507110614 10 337 0.0 3.2 0.00 1.60 0.38 92 1007.2
20260507110404 7 302 0.0 1.6 0.00 0.36 0.36 94 1005.2
20260507105901 7 263 4.8 4.8 0.00 0.36 0.36 94 1005.7
20260507105614 10 292 0.0 0.0 0.00 1.60 0.38 92 1007.5
20260507105358 7 273 3.2 6.4 0.00 0.36 0.36 95 1005.6
20260507104854 7 65 0.0 0.0 0.00 0.36 0.36 96 1005.7
20260507104615 9 235 0.0 1.6 0.00 1.60 0.38 92 1007.5
20260507104351 7 44 0.0 3.2 0.00 0.36 0.36 97 1005.6
20260507103847 7 55 0.0 3.2 0.00 0.36 0.36 98 1005.3
20260507103614 9 292 0.0 0.0 0.00 1.60 0.38 92 1007.2
20260507103344 7 311 3.2 3.2 0.00 0.36 0.36 98 1005.2
20260507102840 7 202 0.0 4.8 0.00 0.36 0.36 99 1005.1
20260507102616 9 180 0.0 0.0 0.00 1.60 0.38 92 1007.2
20260507102337 7 142 1.6 3.2 0.00 0.36 0.36 99 1005.2
20260507101833 7 218 3.2 4.8 0.00 0.36 0.36 99 1005.1
20260507101615 9 180 0.0 0.0 0.00 1.60 0.38 92 1006.8
20260507101517 9 180 0.0 0.0 0.00 1.60 0.38 92 1006.8
20260507101333 7 63 1.6 3.2 0.00 0.36 0.36 99 1005.0
20260507100831 7 40 1.6 3.2 0.00 0.36 0.36 99 1005.2
20260507100615 8 180 0.0 0.0 0.00 1.60 0.38 92 1007.2
20260507100329 7 319 0.0 0.0 0.00 0.36 0.36 99 1005.2
20260507095827 7 89 0.0 1.6 0.00 0.36 0.36 99 1005.2
20260507095713 8 180 0.0 0.0 0.00 1.60 0.38 92 1007.2
20260507095323 7 89 0.0 3.2 0.00 0.36 0.36 99 1005.3
20260507094820 7 57 0.0 3.2 0.00 0.36 0.36 99 1005.2
20260507094316 7 63 3.2 3.2 0.00 0.36 0.36 99 1005.0
20260507093814 7 44 0.0 3.2 0.00 0.36 0.36 99 1005.2
20260507093714 8 180 0.0 0.0 0.00 1.60 0.38 92 1006.8
20260507093312 7 62 1.6 3.2 0.00 0.36 0.36 99 1004.8
20260507092810 7 218 1.6 1.6 0.00 0.36 0.36 99 1005.2
20260507092716 8 180 0.0 0.0 0.00 1.60 0.38 92 1006.8
20260507092307 7 109 0.0 1.6 0.00 0.36 0.36 99 1005.2
20260507091802 7 299 0.0 3.2 0.00 0.36 0.36 99 1005.2
20260507091714 8 180 0.0 0.0 0.03 1.60 0.38 92 1007.2
20260507091259 7 130 1.6 3.2 0.00 0.36 0.36 99 1005.5
20260507090759 7 257 0.0 1.6 0.00 0.36 0.36 99 1005.1
20260507090715 8 180 0.0 0.0 0.03 1.60 0.38 92 1006.5
20260507090256 7 66 3.2 3.2 0.00 0.36 0.36 99 1004.5
20260507085753 7 96 1.6 1.6 0.00 0.36 0.36 99 1004.8
20260507085715 8 180 0.0 0.0 0.03 1.60 0.38 92 1006.5
20260507085250 7 124 0.0 1.6 0.00 0.36 0.36 99 1004.8
20260507084747 7 59 3.2 3.2 0.00 0.36 0.36 99 1004.8
20260507084716 9 180 0.0 0.0 0.03 1.60 0.38 92 1006.5
20260507084243 7 73 1.6 4.8 0.00 0.36 0.36 99 1005.2
20260507083815 9 180 0.0 1.6 0.03 1.60 0.38 92 1006.8
20260507083741 7 269 0.0 1.6 0.00 0.36 0.36 99 1005.1
20260507083237 7 127 3.2 4.8 0.00 0.36 0.36 98 1004.8
20260507082815 9 270 0.0 0.0 0.03 1.60 0.38 92 1006.7
20260507082734 7 81 3.2 3.2 0.00 0.36 0.36 98 1004.7
20260507082229 7 83 3.2 3.2 0.00 0.36 0.36 99 1004.8
20260507081816 10 270 0.0 0.0 0.00 1.57 0.36 92 1006.8
20260507081726 7 35 0.0 3.2 0.00 0.36 0.36 98 1004.9
20260507081222 7 29 1.6 3.2 0.00 0.36 0.36 99 1004.7
20260507080719 7 75 1.6 1.6 0.00 0.36 0.36 98 1005.1
20260507080215 7 89 0.0 1.6 0.00 0.36 0.36 98 1005.1
20260507075816 10 270 0.0 0.0 0.00 1.57 0.36 92 1006.5
20260507075711 8 98 1.6 3.2 0.00 0.36 0.36 98 1004.9
20260507075208 8 73 1.6 3.2 0.00 0.36 0.36 98 1004.8
20260507074914 10 270 0.0 0.0 0.00 1.57 0.36 92 1006.8
20260507074704 8 63 3.2 4.8 0.00 0.36 0.36 98 1004.8
20260507074202 8 133 3.2 4.8 0.00 0.36 0.36 98 1005.1
20260507073658 8 215 3.2 3.2 0.00 0.36 0.36 98 1004.9
20260507073154 8 48 3.2 4.8 0.00 0.36 0.36 98 1004.4
20260507072914 10 337 3.2 6.4 0.00 1.57 0.36 92 1006.8
20260507072653 8 24 3.2 4.8 0.00 0.36 0.36 98 1004.7
20260507072150 8 31 3.2 3.2 0.00 0.36 0.36 98 1004.9
20260507071915 10 202 0.0 0.0 0.00 1.57 0.36 92 1006.5
20260507071647 8 326 0.0 0.0 0.00 0.36 0.36 98 1004.7
20260507071143 8 75 1.6 3.2 0.00 0.36 0.36 98 1004.3
20260507070640 8 35 3.2 3.2 0.00 0.36 0.36 98 1004.4
20260507070137 8 88 0.0 3.2 0.05 0.36 0.36 98 1004.2
20260507070015 10 302 0.0 1.6 0.00 1.57 0.36 92 1006.2
20260507065633 8 62 3.2 3.2 0.05 0.36 0.36 98 1004.4
20260507065131 8 43 1.6 3.2 0.00 0.36 0.36 98 1004.5
20260507065014 10 315 0.0 0.0 0.05 1.57 0.36 92 1006.4
20260507064628 8 42 1.6 3.2 0.00 0.36 0.36 98 1004.4
20260507064127 8 35 0.0 3.2 0.00 0.36 0.36 98 1004.4
20260507064014 11 315 0.0 1.6 0.08 1.57 0.36 92 1006.2
20260507063915 11 315 0.0 3.2 0.10 1.57 0.36 92 1006.2
20260507063624 8 328 0.0 3.2 0.00 0.36 0.36 98 1004.4
20260507063121 8 69 3.2 3.2 0.00 0.36 0.36 98 1004.3
20260507063014 11 292 0.0 3.2 0.18 1.57 0.36 92 1005.8
20260507062617 8 13 1.6 6.4 0.00 0.36 0.36 98 1004.0
20260507062115 8 93 3.2 4.8 0.00 0.36 0.36 98 1004.0
20260507062013 11 112 0.0 0.0 0.18 1.57 0.36 92 1006.2
20260507061613 8 340 0.0 3.2 0.00 0.36 0.36 98 1004.3
20260507061111 8 19 3.2 3.2 0.00 0.36 0.36 98 1004.4
20260507061015 11 237 0.0 3.2 0.18 1.57 0.36 92 1006.2
20260507060609 8 5 0.0 3.2 0.00 0.36 0.36 98 1004.1
20260507060105 8 321 0.0 3.2 0.13 0.36 0.36 98 1004.0
20260507060016 11 292 0.0 0.0 0.20 1.57 0.36 92 1006.2
20260507055600 9 44 0.0 3.2 0.30 0.36 0.36 98 1004.2
20260507055114 11 238 1.6 6.4 0.20 1.55 0.30 92 1006.0
20260507055056 9 61 0.0 3.2 0.30 0.33 0.33 98 1004.1
20260507054552 9 89 0.0 4.8 0.18 0.28 0.28 98 1004.2
20260507054114 11 202 0.0 0.0 0.18 1.50 0.28 92 1006.2
20260507054050 9 80 1.6 3.2 0.30 0.28 0.28 98 1004.1
20260507053547 9 41 3.2 14.5 0.43 0.25 0.25 98 1004.4
20260507053114 11 318 1.6 8.0 0.10 1.42 0.18 92 1006.4
20260507053046 9 159 1.6 3.2 0.18 0.23 0.23 98 1004.6
20260507052543 9 299 0.0 3.2 0.13 0.18 0.18 98 1004.6
20260507052117 11 252 0.0 1.6 0.13 1.40 0.18 92 1006.0
20260507052040 9 312 1.6 3.2 0.13 0.18 0.18 98 1004.4
20260507051538 9 358 3.2 4.8 0.00 0.18 0.18 98 1003.9
20260507051215 11 298 1.6 3.2 0.15 1.40 0.18 92 1006.0
20260507051034 10 355 3.2 6.4 0.00 0.18 0.18 98 1004.0
20260507050530 10 310 0.0 4.8 0.05 0.18 0.18 98 1003.9
20260507050216 12 290 1.6 6.4 0.15 1.37 0.15 91 1005.8
20260507050027 10 318 0.0 4.8 0.18 0.18 0.18 98 1004.0
20260507045524 10 12 1.6 4.8 0.13 0.15 0.15 98 1003.7
20260507045021 10 290 3.2 4.8 0.05 0.15 0.15 98 1003.9
20260507044518 10 315 3.2 3.2 0.05 0.15 0.15 98 1004.0
20260507044015 10 15 1.6 3.2 0.05 0.13 0.13 98 1004.0
20260507043511 10 2 3.2 8.0 0.13 0.13 0.13 97 1004.2
20260507043316 12 289 1.6 6.4 0.13 1.32 0.10 92 1006.2
20260507043008 10 14 3.2 4.8 0.23 0.13 0.13 97 1004.2
20260507042504 10 339 4.8 6.4 0.23 0.10 0.10 97 1004.1
20260507042316 13 301 4.8 9.7 0.10 1.27 0.05 92 1005.8
20260507041959 11 344 3.2 6.4 0.43 0.08 0.08 97 1003.9
20260507041457 12 300 1.6 4.8 0.23 0.05 0.05 97 1003.7
20260507041315 14 310 3.2 17.7 0.08 1.24 0.03 91 1005.7
20260507040953 12 326 3.2 4.8 0.05 0.00 0.00 98 1003.5
20260507040449 12 265 6.4 8.0 0.13 0.00 0.00 98 1003.4
20260507040414 14 309 1.6 4.8 0.08 1.22 0.00 91 1005.2
20260507040313 14 238 1.6 6.4 0.08 1.22 0.00 91 1005.2
20260507035945 12 273 3.2 4.8 0.13 1.19 1.19 98 1003.3
20260507035442 12 255 4.8 6.4 0.13 1.19 1.19 98 1003.3
20260507035411 14 292 0.0 0.0 0.05 1.19 1.19 91 1005.2
20260507034939 12 293 3.2 11.3 0.05 1.17 1.17 98 1003.0
20260507034436 12 234 6.4 6.4 0.00 1.17 1.17 98 1003.2
20260507034409 14 335 0.0 4.8 0.05 1.19 1.19 91 1005.2
20260507033934 12 233 6.4 9.7 0.00 1.17 1.17 97 1003.1
20260507033431 12 243 4.8 14.5 0.00 1.17 1.17 97 1003.0
20260507033410 14 230 0.0 3.2 0.05 1.19 1.19 91 1005.2
20260507032928 12 239 11.3 12.9 0.05 1.17 1.17 97 1003.0
20260507032425 12 244 4.8 11.3 0.00 1.14 1.14 97 1002.8
20260507032412 14 239 0.0 4.8 0.03 1.17 1.17 91 1005.1
20260507031921 12 254 4.8 11.3 0.13 1.14 1.14 97 1003.1
20260507031510 14 202 0.0 3.2 0.03 1.17 1.17 91 1004.8
20260507031418 12 247 4.8 11.3 0.05 1.14 1.14 97 1003.0
20260507030914 12 201 1.6 6.4 0.05 1.14 1.14 97 1002.8
20260507030511 14 170 3.2 6.4 0.00 1.14 1.14 91 1004.8
20260507030412 12 200 9.7 16.1 0.05 1.14 1.14 97 1002.8
20260507025909 12 302 3.2 12.9 0.00 1.12 1.12 97 1002.7
20260507025511 15 171 3.2 11.3 0.00 1.14 1.14 91 1004.8
20260507025406 12 237 9.7 14.5 0.00 1.12 1.12 97 1002.7
20260507024904 12 277 9.7 19.3 0.00 1.12 1.12 97 1002.8
20260507024513 15 347 0.0 3.2 0.00 1.14 1.14 91 1004.8
20260507024401 12 285 4.8 9.7 0.00 1.12 1.12 97 1002.9
20260507023857 12 216 1.6 20.9 0.00 1.12 1.12 97 1003.0
20260507023610 15 138 0.0 0.0 0.00 1.14 1.14 91 1005.0
20260507023353 12 251 6.4 9.7 0.05 1.12 1.12 97 1003.0
20260507022851 12 263 8.0 14.5 0.05 1.12 1.12 97 1003.0
20260507022611 15 200 3.2 4.8 0.00 1.14 1.14 91 1005.2
20260507022347 12 157 4.8 11.3 0.00 1.12 1.12 97 1003.1
20260507021843 12 272 3.2 9.7 0.00 1.12 1.12 97 1003.2
20260507021710 15 323 0.0 8.0 0.00 1.14 1.14 91 1005.2
20260507021339 12 101 9.7 17.7 0.00 1.12 1.12 97 1003.2
20260507020837 12 266 4.8 16.1 0.00 1.12 1.12 97 1003.3
20260507020712 15 226 1.6 4.8 0.00 1.14 1.14 91 1005.2
20260507020333 12 67 1.6 9.7 0.00 1.12 1.12 97 1003.4
20260507015830 13 114 4.8 12.9 0.00 1.12 1.12 97 1003.4
20260507015710 15 149 0.0 4.8 0.03 1.14 1.14 91 1005.5
20260507015612 15 238 3.2 6.4 0.03 1.14 1.14 91 1005.5
20260507015328 13 177 8.0 19.3 0.00 1.12 1.12 97 1003.5
20260507014825 13 294 3.2 11.3 0.00 1.12 1.12 97 1003.6
20260507014611 15 220 3.2 6.4 0.03 1.14 1.14 91 1005.6
20260507014321 13 198 14.5 19.3 0.00 1.12 1.12 97 1003.7
20260507013818 13 2 1.6 20.9 0.00 1.12 1.12 97 1003.7
20260507013611 15 162 6.4 11.3 0.03 1.14 1.14 91 1005.8
20260507013315 13 215 9.7 17.7 0.00 1.12 1.12 97 1004.0
20260507012813 13 283 6.4 8.0 0.00 1.12 1.12 97 1003.8
20260507012710 15 220 1.6 8.0 0.03 1.14 1.14 91 1005.8
20260507012308 13 234 6.4 8.0 0.00 1.12 1.12 97 1004.1
20260507011806 13 244 9.7 20.9 0.00 1.12 1.12 97 1004.1
20260507011713 14 215 3.2 8.0 0.03 1.14 1.14 90 1006.2
20260507011302 13 150 3.2 12.9 0.00 1.12 1.12 97 1004.1
20260507010802 13 49 3.2 17.7 0.00 1.12 1.12 97 1004.2
20260507010711 14 171 4.8 14.5 0.03 1.14 1.14 90 1006.2
20260507010258 13 231 9.7 12.9 0.00 1.12 1.12 97 1004.2
20260507005756 13 290 6.4 8.0 0.13 1.12 1.12 97 1004.4
20260507005712 15 252 0.0 3.2 0.00 1.12 1.12 91 1006.5
20260507005252 13 143 9.7 14.5 0.18 1.12 1.12 97 1004.6
20260507004748 13 246 8.0 8.0 0.05 1.09 1.09 97 1004.6
20260507004711 14 219 3.2 8.0 0.00 1.12 1.12 90 1006.5
20260507004246 13 231 1.6 9.7 0.00 1.07 1.07 97 1004.6
20260507003742 13 190 3.2 14.5 0.00 1.07 1.07 96 1004.7
20260507003713 15 213 3.2 6.4 0.00 1.12 1.12 91 1006.5
20260507003237 13 106 4.8 9.7 0.00 1.07 1.07 96 1004.7
20260507002734 13 160 9.7 14.5 0.00 1.07 1.07 96 1004.8
20260507002230 13 278 8.0 8.0 0.00 1.07 1.07 96 1004.6
20260507001811 14 135 0.0 4.8 0.03 1.12 1.12 90 1006.8
20260507001727 13 262 8.0 11.3 0.00 1.07 1.07 96 1004.7
20260507001224 13 254 6.4 17.7 0.00 1.07 1.07 96 1004.8
20260507000720 13 247 6.4 14.5 0.00 1.07 1.07 96 1004.8
20260507000216 13 280 3.2 12.9 0.00 1.07 1.07 96 1004.8
20260506235811 15 188 0.0 3.2 0.10 1.12 1.12 91 1007.2
20260506235713 13 259 9.7 19.3 0.00 1.07 1.07 96 1004.9
20260506235209 13 11 3.2 14.5 0.00 1.07 1.07 96 1005.0
20260506234712 15 15 3.2 6.4 0.15 1.12 1.12 91 1007.2
20260506234706 13 331 1.6 17.7 0.00 1.07 1.07 96 1004.9
20260506234203 13 275 9.7 19.3 0.00 1.07 1.07 96 1005.1
20260506233711 15 224 3.2 8.0 0.18 1.12 1.12 91 1007.2
20260506233700 13 264 8.0 8.0 0.00 1.07 1.07 96 1005.1
20260506233157 13 312 3.2 4.8 0.00 1.07 1.07 96 1005.1
20260506232711 15 351 0.0 4.8 0.20 1.12 1.12 91 1007.2
20260506232653 13 233 8.0 12.9 0.05 1.07 1.07 96 1005.2
20260506232148 13 250 11.3 17.7 0.13 1.07 1.07 96 1005.1
20260506231811 15 211 0.0 0.0 0.20 1.09 1.09 91 1007.2
20260506231646 13 249 16.1 20.9 0.18 1.07 1.07 96 1005.1
20260506231145 13 267 6.4 17.7 0.23 1.07 1.07 95 1005.0
20260506230909 15 164 0.0 6.4 0.18 1.04 1.02 91 1007.2
20260506230641 13 287 12.9 17.7 0.18 1.04 1.04 95 1005.1
20260506230138 13 232 14.5 22.5 0.13 1.02 1.02 96 1005.3
20260506225910 15 269 1.6 3.2 0.20 1.02 1.02 91 1007.2
20260506225634 13 177 4.8 9.7 0.05 1.02 1.02 96 1005.1
20260506225131 13 276 6.4 11.3 0.13 0.99 0.99 96 1005.2
20260506224911 15 281 1.6 6.4 0.20 0.97 0.97 91 1007.2
20260506224628 13 249 3.2 12.9 0.13 0.99 0.99 95 1005.2
20260506224124 13 226 3.2 24.1 0.23 0.99 0.99 96 1005.0
20260506223620 13 268 3.2 9.7 0.18 0.97 0.97 96 1005.1
20260506223116 13 302 17.7 17.7 0.13 0.94 0.94 96 1005.2
20260506222614 13 65 3.2 17.7 0.13 0.94 0.94 96 1005.1
20260506222110 13 269 8.0 8.0 0.13 0.91 0.91 96 1005.4
20260506222012 15 160 0.0 3.2 0.20 0.89 0.89 91 1007.5
20260506221608 13 38 3.2 14.5 0.13 0.91 0.91 96 1005.5
20260506221111 15 291 0.0 1.6 0.25 0.86 0.86 91 1007.6
20260506221106 13 202 8.0 9.7 0.18 0.89 0.89 96 1005.6
20260506220602 13 257 3.2 11.3 0.23 0.89 0.89 96 1005.5
20260506220210 15 260 3.2 6.4 0.23 0.81 0.81 91 1007.8
20260506220057 13 325 6.4 14.5 0.23 0.86 0.86 96 1005.9
20260506215554 13 229 6.4 8.0 0.18 0.84 0.84 96 1005.5
20260506215309 15 199 0.0 3.2 0.25 0.79 0.79 90 1007.9
20260506215049 13 305 3.2 8.0 0.13 0.81 0.81 96 1005.8
20260506214546 13 88 3.2 4.8 0.05 0.81 0.81 96 1005.9
20260506214312 15 181 0.0 0.0 0.28 0.76 0.76 91 1007.9
20260506214044 13 288 3.2 9.7 0.13 0.81 0.81 96 1005.9
20260506213542 13 269 6.4 16.1 0.13 0.79 0.79 96 1005.8
20260506213312 15 181 0.0 1.6 0.33 0.71 0.71 91 1007.9
20260506213039 13 194 1.6 11.3 0.18 0.79 0.79 96 1005.8
20260506212536 13 212 3.2 9.7 0.36 0.76 0.76 95 1005.8
20260506212311 15 91 1.6 4.8 0.36 0.71 0.71 91 1007.9
20260506212030 13 312 3.2 16.1 0.43 0.74 0.74 95 1005.7
20260506211526 13 173 6.4 16.1 0.36 0.71 0.71 95 1005.9
20260506211314 15 176 3.2 4.8 0.33 0.64 0.64 91 1008.2
20260506211024 13 292 6.4 14.5 0.23 0.66 0.66 95 1006.2
20260506210520 13 261 4.8 20.9 0.23 0.66 0.66 95 1006.0
20260506210311 15 195 4.8 11.3 0.33 0.58 0.58 90 1008.0
20260506210017 13 248 8.0 20.9 0.23 0.64 0.64 95 1006.0
20260506205514 13 180 1.6 11.3 0.23 0.61 0.61 95 1006.0
20260506205311 15 202 0.0 0.0 0.36 0.53 0.53 90 1008.1
20260506205009 13 321 8.0 8.0 0.36 0.58 0.58 95 1005.9
20260506204508 13 281 3.2 17.7 0.48 0.56 0.56 94 1006.0
20260506204004 13 272 9.7 22.5 0.43 0.53 0.53 94 1006.1
20260506203502 13 333 3.2 27.4 0.30 0.48 0.48 94 1006.0
20260506203311 15 230 1.6 8.0 0.36 0.41 0.41 90 1008.3
20260506202958 13 158 9.7 14.5 0.48 0.46 0.46 94 1006.1
20260506202456 13 76 3.2 11.3 0.53 0.43 0.43 93 1006.5
20260506202310 15 145 0.0 3.2 0.33 0.36 0.36 90 1008.6
20260506201952 13 260 4.8 16.1 0.36 0.38 0.38 93 1006.3
20260506201450 13 155 6.4 17.7 0.30 0.36 0.36 93 1006.2
20260506201312 15 192 0.0 3.2 0.30 0.30 0.28 90 1008.2
20260506200946 13 313 14.5 16.1 0.36 0.33 0.33 93 1006.2
20260506200442 13 135 4.8 8.0 0.36 0.30 0.30 92 1006.0
20260506200312 15 169 1.6 4.8 0.25 0.25 0.25 89 1007.9
20260506195939 13 243 6.4 8.0 0.30 0.25 0.25 92 1005.8
20260506195436 13 103 3.2 8.0 0.36 0.23 0.23 91 1006.0
20260506195411 15 143 3.2 9.7 0.18 0.18 0.18 88 1008.0
20260506194932 13 134 4.8 9.7 0.30 0.20 0.20 91 1006.0
20260506194430 14 327 3.2 9.7 0.36 0.18 0.18 90 1006.1
20260506194409 16 215 1.6 4.8 0.13 0.13 0.13 87 1008.1
20260506194313 16 282 1.6 6.4 0.13 0.13 0.13 87 1008.0
20260506193927 14 286 1.6 12.9 0.30 0.15 0.15 90 1006.0
20260506193424 14 291 3.2 11.3 0.36 0.13 0.13 88 1006.0
20260506192920 15 297 4.8 6.4 0.30 0.10 0.10 88 1006.3
20260506192417 15 286 4.8 8.0 0.30 0.05 0.05 86 1006.2
20260506191914 15 287 3.2 16.1 0.23 0.05 0.05 84 1006.5
20260506191410 15 255 4.8 9.7 0.05 0.00 0.00 82 1006.7
20260506190908 16 224 8.0 19.3 0.00 0.00 0.00 79 1006.5
20260506190510 18 135 0.0 0.0 0.00 0.00 0.00 75 1008.8
20260506190404 16 197 6.4 24.1 0.00 0.00 0.00 76 1006.5
20260506185901 17 149 3.2 12.9 0.00 0.00 0.00 75 1006.5
20260506185511 18 112 0.0 0.0 0.00 0.00 0.00 76 1008.6
20260506185358 17 218 3.2 14.5 0.00 0.00 0.00 74 1006.5
20260506184855 17 254 6.4 17.7 0.00 0.00 0.00 74 1006.2
20260506184511 18 157 0.0 0.0 0.00 0.00 0.00 76 1008.3
20260506184352 17 301 6.4 8.0 0.00 0.00 0.00 74 1006.3
20260506183849 17 160 6.4 9.7 0.00 0.00 0.00 74 1006.4
20260506183511 18 246 1.6 6.4 0.00 0.00 0.00 76 1008.6
20260506183344 17 180 6.4 9.7 0.00 0.00 0.00 74 1006.6
20260506182842 17 244 3.2 11.3 0.00 0.00 0.00 74 1006.5
20260506182512 18 232 1.6 8.0 0.00 0.00 0.00 76 1008.6
20260506182339 17 150 3.2 12.9 0.00 0.00 0.00 74 1006.6
20260506181836 17 150 9.7 11.3 0.00 0.00 0.00 74 1006.6
20260506181334 17 170 8.0 12.9 0.00 0.00 0.00 74 1006.7
20260506180831 17 244 3.2 9.7 0.00 0.00 0.00 74 1006.8
20260506180511 18 208 1.6 6.4 0.00 0.00 0.00 74 1008.9
20260506180327 17 263 9.7 11.3 0.00 0.00 0.00 74 1006.8
20260506175823 17 238 3.2 12.9 0.00 0.00 0.00 74 1006.8
20260506175512 19 114 0.0 3.2 0.00 0.00 0.00 74 1008.9
20260506175321 17 112 3.2 4.8 0.00 0.00 0.00 73 1007.1
20260506174818 17 59 3.2 16.1 0.00 0.00 0.00 72 1007.0
20260506174609 19 130 1.6 4.8 0.00 0.00 0.00 74 1008.9
20260506174315 17 305 6.4 16.1 0.00 0.00 0.00 72 1007.1
20260506173812 17 164 3.2 14.5 0.00 0.00 0.00 72 1007.0
20260506173512 19 209 0.0 4.8 0.00 0.00 0.00 74 1009.4
20260506173309 17 150 3.2 9.7 0.00 0.00 0.00 72 1007.4
20260506172806 17 253 3.2 9.7 0.00 0.00 0.00 72 1007.4
20260506172511 19 163 1.6 4.8 0.00 0.00 0.00 74 1009.6
20260506172306 17 319 3.2 12.9 0.00 0.00 0.00 72 1007.4
20260506171800 17 305 3.2 8.0 0.00 0.00 0.00 72 1007.5
20260506171513 18 129 0.0 4.8 0.00 0.00 0.00 73 1009.6
20260506171257 17 176 3.2 8.0 0.00 0.00 0.00 73 1007.7
20260506170755 17 147 4.8 11.3 0.00 0.00 0.00 72 1007.6
20260506170512 19 97 0.0 3.2 0.00 0.00 0.00 74 1009.8
20260506170251 17 120 11.3 12.9 0.00 0.00 0.00 72 1007.9
20260506165749 17 313 4.8 16.1 0.00 0.00 0.00 72 1007.6
20260506165511 19 112 1.6 3.2 0.00 0.00 0.00 75 1009.6
20260506165247 18 271 8.0 14.5 0.00 0.00 0.00 71 1007.7
20260506164743 18 217 4.8 6.4 0.00 0.00 0.00 72 1007.8
20260506164510 18 100 1.6 4.8 0.00 0.00 0.00 75 1009.9
20260506164240 17 113 3.2 8.0 0.00 0.00 0.00 72 1007.9
20260506163737 17 225 6.4 9.7 0.00 0.00 0.00 72 1008.0
20260506163512 18 124 0.0 4.8 0.00 0.00 0.00 75 1009.9
20260506163232 17 253 6.4 12.9 0.00 0.00 0.00 73 1008.1
20260506162728 17 244 3.2 6.4 0.00 0.00 0.00 73 1008.0
20260506162511 18 292 0.0 3.2 0.00 0.00 0.00 76 1010.0
20260506162226 17 28 3.2 14.5 0.00 0.00 0.00 73 1008.0
20260506161723 17 86 4.8 11.3 0.00 0.00 0.00 74 1008.1
20260506161511 18 112 0.0 3.2 0.00 0.00 0.00 76 1010.3
20260506161220 17 265 3.2 11.3 0.00 0.00 0.00 74 1008.1
20260506160718 17 171 3.2 6.4 0.00 0.00 0.00 74 1008.3
20260506160214 17 115 6.4 8.0 0.00 0.00 0.00 74 1008.5
20260506155713 17 273 3.2 14.5 0.00 0.00 0.00 74 1008.3
20260506155512 18 90 0.0 0.0 0.00 0.00 0.00 77 1010.4
20260506155210 17 262 1.6 6.4 0.00 0.00 0.00 74 1008.6
20260506154611 17 76 1.6 4.8 0.00 0.00 0.00 77 1010.6
20260506153610 17 22 0.0 0.0 0.00 0.00 0.00 77 1010.6
20260506153311 16 14 3.2 4.8 0.00 0.00 0.00 74 1008.4
20260506152808 16 162 0.0 9.7 0.00 0.00 0.00 75 1008.4
20260506152306 16 75 3.2 6.4 0.00 0.00 0.00 74 1008.1
20260506151804 16 331 3.2 9.7 0.00 0.00 0.00 74 1007.9
20260506151301 16 42 1.6 6.4 0.00 0.00 0.00 74 1008.1
20260506150757 16 157 8.0 9.7 0.00 0.00 0.00 73 1008.0
20260506150612 17 231 0.0 4.8 0.00 0.00 0.00 76 1010.3
20260506150303 16 180 0.0 6.4 0.00 0.00 0.00 74 1008.2
20260506145751 16 126 6.4 9.7 0.00 0.00 0.00 73 1008.2
20260506145611 17 112 0.0 4.8 0.00 0.00 0.00 76 1010.6
20260506145248 16 123 3.2 8.0 0.00 0.00 0.00 74 1008.2
20260506144745 16 64 3.2 12.9 0.00 0.00 0.00 74 1008.8
20260506144710 17 40 0.0 1.6 0.00 0.00 0.00 76 1010.7
20260506144242 16 60 1.6 4.8 0.00 0.00 0.00 74 1008.7
20260506143740 16 109 3.2 11.3 0.00 0.00 0.00 73 1008.8
20260506143712 17 28 1.6 4.8 0.00 0.00 0.00 76 1010.9
20260506143237 16 180 3.2 9.7 0.00 0.00 0.00 72 1008.7
20260506142735 16 84 3.2 12.9 0.00 0.00 0.00 72 1008.8
20260506142233 16 302 3.2 6.4 0.00 0.00 0.00 72 1008.8
20260506141731 16 180 4.8 9.7 0.00 0.00 0.00 72 1009.0
20260506141712 17 96 0.0 3.2 0.00 0.00 0.00 76 1011.3
20260506141611 17 112 0.0 1.6 0.00 0.00 0.00 76 1011.3
20260506141229 16 143 3.2 3.2 0.00 0.00 0.00 73 1009.0
20260506140726 16 105 3.2 6.4 0.00 0.00 0.00 72 1008.8
20260506140610 17 45 1.6 6.4 0.00 0.00 0.00 76 1011.0
20260506140223 16 293 3.2 6.4 0.00 0.00 0.00 72 1009.0
20260506135720 16 309 0.0 3.2 0.00 0.00 0.00 73 1009.0
20260506135709 17 22 0.0 3.2 0.00 0.00 0.00 76 1010.9
20260506135216 16 317 0.0 6.4 0.00 0.00 0.00 73 1008.8
20260506134713 16 130 8.0 11.3 0.00 0.00 0.00 72 1009.0
20260506134710 17 80 1.6 4.8 0.00 0.00 0.00 76 1010.9
20260506134209 16 234 1.6 1.6 0.00 0.00 0.00 73 1008.8
20260506133710 17 51 1.6 6.4 0.00 0.00 0.00 77 1010.9
20260506133707 16 44 0.0 3.2 0.00 0.00 0.00 72 1009.0
20260506133610 17 67 0.0 0.0 0.00 0.00 0.00 77 1010.9
20260506133203 16 139 3.2 4.8 0.00 0.00 0.00 74 1008.8
20260506132700 15 134 3.2 6.4 0.00 0.00 0.00 74 1009.0
20260506132611 16 247 0.0 0.0 0.00 0.00 0.00 78 1011.0
20260506132157 15 148 1.6 4.8 0.00 0.00 0.00 74 1009.1
20260506131709 16 35 3.2 4.8 0.00 0.00 0.00 77 1011.0
20260506131655 15 218 1.6 4.8 0.00 0.00 0.00 75 1008.9
20260506131150 15 161 0.0 3.2 0.00 0.00 0.00 75 1009.0
20260506130809 16 86 0.0 3.2 0.00 0.00 0.00 78 1011.2
20260506130648 15 189 1.6 6.4 0.00 0.00 0.00 76 1009.0
20260506130145 15 151 6.4 6.4 0.00 0.00 0.00 75 1009.1
20260506125812 16 67 3.2 4.8 0.00 0.00 0.00 80 1011.5
20260506125643 15 186 0.0 3.2 0.00 0.00 0.00 77 1009.2
20260506125141 14 261 4.8 6.4 0.00 0.00 0.00 78 1009.3